Regional Weather Roundup
Issued by NWS

Home | Current Version | Previous Version | Text Only | Print | Product List | Glossary On
Versions: 1 2 3 4 5 6 7 8 9 10 11 12 13 14 15 16 17 18 19 20 21 22 23 24 25 26 27 28 29 30 31 32 33 34 35 36 37 38 39 40 41 42 43 44 45 46 47 48 49 50
000
ASUS43 KMPX 311010
RWRMN
WEATHER ROUNDUP FOR MINNESOTA
NATIONAL WEATHER SERVICE TWIN CITIES/CHANHASSEN MN
500 AM CDT FRI JUL 31 2015


NOTE: "FAIR" INDICATES FEW OR NO CLOUDS BELOW 12,000 FEET WITH NO
SIGNIFICANT WEATHER AND/OR OBSTRUCTIONS TO VISIBILITY. N/A MEANS
CURRENT SKY AND/OR WEATHER CONDITIONS ARE NOT AVAILABLE.

MNZ060>063-068>070-311100-
   Twin Cities Metro

CITY           SKY/WX    TMP DP  RH WIND       PRES   REMARKS
TWIN CITIES    CLEAR     67  55  65 NW9       30.04R
ST PAUL        CLEAR     68  54  60 NW8       30.03S
CRYSTAL        CLEAR     67  55  65 W8        30.02S
BLAINE         CLEAR     66  55  68 W8        30.03S
LAKEVILLE      CLEAR     63  57  82 W5        30.05S
EDEN PRAIRIE   CLEAR     67  55  65 W6        30.04R
SOUTH ST PAUL  CLEAR     69  52  54 W8        30.03S
LAKE ELMO      FAIR      66  55  68 W7        30.04R
$$
MNZ001>005-007-008-013>017-022>024-027-028-311100-
   Northwest Minnesota

CITY           SKY/WX    TMP DP  RH WIND       PRES   REMARKS
BEMIDJI        CLEAR     57  50  76 W10       30.01R
HALLOCK        CLEAR     55  52  88 W3        29.99F
ROSEAU         CLEAR     55  52  88 W6        29.97S
WARROAD        CLEAR     55  52  88 W7        29.97S
THIEF RVR FALL CLEAR     55  50  82 W8        30.02S
CROOKSTON      CLEAR     54  52  94 W6        30.04S
FOSSTON        CLEAR     55  50  82 W8        30.04S
DETROIT LAKES  CLEAR     61  50  67 NW9       30.07S
MOORHEAD       CLEAR     55  52  88 W7        30.07S
PARK RAPIDS    CLEAR     55  49  80 W6        30.04R
MAHNOMEN       FAIR      54  51  89 W6        30.04S
$$
MNZ006-009>011-018-025>026-311100-
   North Central Minnesota

CITY           SKY/WX    TMP DP  RH WIND       PRES   REMARKS
BAUDETTE       CLEAR     57  52  83 W8        29.94R
FLAG ISLAND    CLEAR     61  54  77 W14       29.92S
INTL FALLS     CLEAR     55  54  96 W7        29.91S
WASKISH        CLEAR     63  55  77 W13G21    29.97R
BIG FORK       CLEAR     57  52  82 W3        29.96S
LONGVILLE      CLEAR     61  52  72 W5        30.00S
GRAND RAPIDS   CLEAR     63  48  59 W9        29.97S
CRANE LAKE     CLEAR     54  52  94 W1        29.92R
ORR            CLEAR     55  52  88 CALM      29.90S
COOK           CLEAR     55  54  94 W6        29.93F
WALKER         FAIR      57  49  74 W7        30.01S
$$
MNZ012-019>021-037-311100-
   Northeast Minnesota

CITY           SKY/WX    TMP DP  RH WIND       PRES   REMARKS
DULUTH         PTCLDY    62  52  69 W10       29.94R
ELY            CLEAR     55  54  94 W5        29.91R
HIBBING        CLEAR     59  52  77 W7        29.94S
EVELETH        CLEAR     59  52  77 W8        29.95S
DULUTH HARBOR  CLEAR     66  55  68 W14       29.93R
TWO HARBORS    CLEAR     63  55  77 W6        29.90R
SILVER BAY     CLEAR     59  54  82 W3        29.88R
GRAND MARAIS     N/A     62  54  74 NW6       29.82R
G MARAIS ARPRT   N/A     55  50  82 W6        29.87S
$$
MNZ029>031-032-039>041-046>048-054>057-064-311100-
   West Central Minnesota

CITY           SKY/WX    TMP DP  RH WIND       PRES   REMARKS
FERGUS FALLS   CLEAR     55  55 100 CALM      30.09S
WHEATON        CLEAR     57  54  88 W5        30.13R
MORRIS         CLEAR     55  54  94 W7        30.10R
ALEXANDRIA     CLEAR     60  55  83 W8        30.10R
ELBOW LAKE     FAIR      56  54  92 W5        30.09S
WADENA         CLEAR     55  48  76 W7        30.05S
GLENWOOD       CLEAR     57  55  94 W8        30.10R
APPLETON       CLEAR     57  54  88 W5        30.11R
BENSON         CLEAR     55  52  88 CALM      30.10S
ORTONVILLE     CLEAR     64  52  63 W7        30.11S
MADISON        CLEAR     57  54  88 NW3       30.12R
WILLMAR        FAIR      59  57  94 W5        30.11R
$$
MNZ033>034-036-042>043-049>051-058-059-311100-
   Central Minnesota

CITY           SKY/WX    TMP DP  RH WIND       PRES   REMARKS
ST CLOUD       CLEAR     61  53  75 W6        30.04S
SAUK CENTRE    FAIR      56  54  91 W5        30.08R
PAYNESVILLE    CLEAR     51  51 100 SW5       30.09R
AITKIN         CLEAR     61  52  72 W3        29.99S
PINE RIVER     CLEAR     59  52  77 W6        30.05R
BRAINERD       CLEAR     62  51  67 W9        30.03R
STAPLES        CLEAR     57  50  77 W8        30.05R
LONG PRAIRIE   FAIR      61  52  72 W7        30.07S
LITTLE FALLS   CLEAR     61  50  67 W6        30.05R
LITCHFIELD     CLEAR     64  59  82 W5        30.08S
BUFFALO        CLEAR     64  55  74 SW5       30.06S
MAPLE LAKE     CLEAR     64  55  72 W6        30.06S
$$
MNZ037-044-045-052-053-311100-
   East Central Minnesota

CITY           SKY/WX    TMP DP  RH WIND       PRES   REMARKS
PRINCETON      CLEAR     63  55  77 W5        30.04R
MORA           CLEAR     59  50  72 W6        30.03R
CAMBRIDGE      CLEAR     66  54  63 W6        30.01R
RUSH CITY      PTCLDY    60  54  80 W7        30.01S
MOOSE LAKE     CLEAR     59  52  77 W6        29.96S
HINCKLEY       FAIR      59  55  88 W5        29.99S
CLOQUET        CLEAR     61  50  67 W8        29.96R
MCGREGOR       CLEAR     61  52  72 W6        29.99S
$$
MNZ071>073-080-081-089-090-097-098-311100-
   Southwest Minnesota

CITY           SKY/WX    TMP DP  RH WIND       PRES   REMARKS
MONTEVIDEO     CLEAR     61  55  82 NW6       30.13R
GRANITE FALLS  CLEAR     59  55  86 W6        30.13R
CANBY          CLEAR     61  53  76 NW6       30.14R
MARSHALL       CLEAR     61  52  72 NW7       30.13R
REDWOOD FALLS  CLEAR     61  57  87 NW7       30.10R
OLIVIA         CLEAR     57  54  88 W5        30.09S
PIPESTONE      CLEAR     63  59  88 CALM      30.14S
WINDOM         CLEAR     59  57  94 CALM      30.12S
WORTHINGTON    MOCLDY    61  54  77 W3        30.14S
JACKSON        MOCLDY    61  59  94 W3        30.13S
TRACY          CLEAR     68  55  64 W7        30.13R
SLAYTON        MOCLDY    60  58  91 CALM      30.15R
$$
MNZ065>067-074>077-082>085-091>093-311100-
   South Central Minnesota

CITY           SKY/WX    TMP DP  RH WIND       PRES   REMARKS
MANKATO        CLEAR     64  57  77 NW8       30.08S
NEW ULM        CLEAR     59  57  94 W6        30.09S
ST JAMES       CLEAR     63  59  88 SW5       30.11R
FAIRMONT       CLEAR     63  55  77 CALM      30.10S
GLENCOE        CLEAR     63  60  90 W5        30.07S
FARIBAULT      CLEAR     63  61  94 W6        30.07S
OWATONNA       CLEAR     59  55  88 W3        30.08R
WASECA         CLEAR     55  55 100 W5        30.09R
ALBERT LEA     CLEAR     64  61  88 W5        30.09R
$$
MNZ078>079-086>088-094>096-311100-
   Southeast Minnesota

CITY           SKY/WX    TMP DP  RH WIND       PRES   REMARKS
ROCHESTER      CLEAR     62  59  90 W9        30.07S
RED WING       CLEAR     63  61  94 W3        30.02R
STANTON        CLEAR     64  58  82 W6        30.04R
DODGE CENTER   CLEAR     59  57  94 W7        30.07R
WINONA         CLEAR     63  59  88 CALM      30.02S
AUSTIN         CLEAR     66  61  82 W5        30.07S
PRESTON        CLEAR     62  58  88 W8        30.06S
$$
ABBREVIATIONS USED IN REMARKS
   TC - TEMPERATURES IN CELSIUS
  WCI - WIND CHILL INDEX
   HX - HEAT INDEX
  VSB - VISIBILITY
$$



USA.gov is the U.S. government's official web portal to all federal, state and local government web resources and services.